Veracruz Airport, Mexico

2:43 PM CST on January 16, 2018 (GMT -0600)
Gen Heriberto Jara International

Weather History for MMVR - December, 2012

Change the Weather History Date:

Sunday, December 30, 2012

  Actual Average Record
Temperature  
Mean Temperature 68 °F -  
Max Temperature 71 °F 78 °F 86 °F (2010)
Min Temperature 64 °F 62 °F 50 °F (1997)
Cooling Degree Days 4    
Growing Degree Days 18 (Base 50)    
Moisture  
Dew Point 60 °F    
Average Humidity 75    
Maximum Humidity 88    
Minimum Humidity 68    
Precipitation  
Precipitation 0.00 in - - ()
Sea Level Pressure  
Sea Level Pressure 30.21 in    
Wind  
Wind Speed 6 mph ()    
Max Wind Speed 15 mph    
Max Gust Speed -    
Visibility 6.0 miles    
Events      
Averages and records for this station are not official NWS values.
T = Trace of Precipitation, MM = Missing Value Source: Averaged Metar Reports

Daily Weather History Graph

Daily Weather History Graph

Search for Another Location

Airport or City:

Trip Planner

Search our weather history database for the weather conditions in past years. The results will help you decide how hot, cold, wet, or windy it might be!

Date:

Astronomy

Dec. 30, 2012 Rise Set
Actual Time 6:57 AM CST 5:57 PM CST
Civil Twilight 6:33 AM CST 6:21 PM CST
Nautical Twilight 6:06 AM CST 6:48 PM CST
Astronomical Twilight 5:39 AM CST 7:15 PM CST
Moon 8:08 PM CST (12/30) 8:25 AM CST (12/30)
Length of Visible Light 11h 47m
Length of Day
10h 59m
Waning Gibbous, 95% of the Moon is Illuminated
Dec 30
Waning Gibbous
Jan 4
Last Quarter
Jan 11
New
Jan 18
First Quarter
Jan 26
Full

Hourly Weather History & Observations

Time (CST) Temp. Dew Point Humidity Pressure Visibility Wind Dir Wind Speed Gust Speed Precip Events Conditions
4:52 AM 68.0 °F 57.2 °F 68% 30.25 in 5.0 mi North 9.2 mph - N/A   Overcast
5:42 AM 68.0 °F 57.2 °F 68% 30.20 in 6.0 mi NW 15.0 mph - N/A   Overcast
6:43 AM 68.0 °F 57.2 °F 68% 30.26 in 6.0 mi North 6.9 mph - N/A   Overcast
7:43 AM 68.0 °F 57.2 °F 68% 30.28 in 5.0 mi NNW 3.5 mph - N/A   Overcast
8:47 AM 68.0 °F 59.0 °F 73% 30.26 in 5.0 mi West 2.3 mph - N/A   Overcast
9:41 AM 68.0 °F 59.0 °F 73% 30.30 in 5.0 mi WNW 3.5 mph - N/A   Overcast
10:44 AM 69.8 °F 60.8 °F 73% 30.29 in 5.0 mi NW 3.5 mph - N/A   Overcast
11:42 AM 69.8 °F 59.0 °F 68% 30.23 in 6.0 mi North 4.6 mph - N/A   Overcast
12:44 PM 71.6 °F 60.8 °F 69% 30.22 in 6.0 mi NNW 6.9 mph - N/A   Overcast
1:43 PM 69.8 °F 60.8 °F 73% 30.20 in 6.0 mi NNE 8.1 mph - N/A   Overcast
2:43 PM 71.6 °F 60.8 °F 69% 30.14 in 6.0 mi NNE 12.7 mph - N/A   Overcast
3:43 PM 69.8 °F 62.6 °F 78% 30.16 in 6.0 mi NE 10.4 mph - N/A   Overcast
4:44 PM 69.8 °F 62.6 °F 78% 30.17 in 6.0 mi North 11.5 mph - N/A   Overcast
5:48 PM 68.0 °F 62.6 °F 83% 30.15 in 6.0 mi NNE 9.2 mph - N/A   Overcast
6:58 PM 68.0 °F 62.6 °F 83% 30.18 in 7.0 mi NNE 5.8 mph - N/A   Overcast
7:48 PM 68.0 °F 62.6 °F 83% 30.19 in 7.0 mi NNW 2.3 mph - N/A   Mostly Cloudy
8:51 PM 68.0 °F 62.6 °F 83% 30.17 in 7.0 mi NNW 2.3 mph - N/A   Mostly Cloudy
9:49 PM 66.2 °F 60.8 °F 83% 30.21 in 7.0 mi WNW 2.3 mph - N/A   Mostly Cloudy
10:45 PM 64.4 °F 60.8 °F 88% 30.20 in 7.0 mi Calm Calm - N/A   Mostly Cloudy